[Date Prev][Date Next][Thread Prev][Thread Next] - [Date Index][Thread Index][Author Index]
2 Line ISS Keps 2-11
- Subject: [sarex] 2 Line ISS Keps 2-11
- From: "Dave Larsen PhD" <doc@xxxxxxxxxxx>
- Date: Wed, 11 Feb 2004 02:37:48 -0800
ISS
1 25544U 98067A 04041.75586225 .00011966 00000-0 11538-3 0 1636
2 25544 51.6286 254.4883 0007516 149.6424 302.8073 15.66957785298329
----
Via the sarex mailing list at AMSAT.ORG courtesy of AMSAT-NA.
To unsubscribe, send "unsubscribe sarex" to Majordomo@amsat.org
AMSAT Home